SCP
0 0 0 0 0 0 0 0 0 0 0 0 0 0 0 0 0 0 0 0 0 0 0 0 0 0 0 0 0 0 0 0 0 0 0 0 0 0 0 0 0 0 0
0 0 0 0 0 0 0 0 0 0 0 0 0 0 0 0 0 0 0 0 0 0 0 0 0 0 0 0 0 0 0 0 0 0 0 0 0 0 0 0 0 0 0
0 0 0 0 0 0 0 1 1 1 0 0 0 0 0 0 0 0 0 0 0 0 0 0 0 0 0 0 0 0 0 0 0 0 0 0 0 0 0 0 0 0 0
0 0 0 0 0 0 0 1 1 1 1 1 0 0 0 0 0 0 0 0 0 0 0 0 0 0 0 0 0 0 0 0 0 0 0 0 0 0 0 0 0 0 0
0 0 0 0 0 0 1 1 1 1 1 1 0 0 0 0 0 0 0 0 0 0 0 0 0 0 0 0 0 0 0 0 0 0 0 0 0 0 0 0 0 0 0
0 0 0 0 0 0 1 1 1 1 1 1 0 0 0 0 0 0 0 0 0 0 0 0 0 0 0 0 0 0 0 0 0 0 0 0 0 0 0 0 0 0 0
0 0 0 0 0 1 1 1 1 1 1 1 1 1 0 0 0 0 0 0 0 0 0 0 0 0 0 0 0 0 0 0 0 0 0 0 0 0 0 0 0 0 0
0 0 0 0 0 1 1 1 1 1 1 1 1 1 1 0 0 0 0 0 0 0 0 0 0 0 0 0 0 0 0 0 0 0 0 0 0 0 0 0 0 0 0
0 0 0 0 0 1 1 1 1 1 1 1 1 1 1 0 0 0 0 0 0 0 0 0 0 0 0 0 0 0 0 0 0 0 0 0 0 0 0 0 0 0 0
0 0 0 0 0 0 0 1 1 1 1 1 1 1 0 0 0 0 0 0 0 0 0 0 0 0 0 0 0 0 0 0 0 0 0 0 0 0 0 0 0 0 0
1 1 1 1 0 0 0 1 1 1 1 1 1 0 0 0 0 0 0 0 0 0 0 0 0 0 0 0 0 0 0 0 0 0 0 0 0 0 0 0 0 0 0
1 1 1 1 1 0 1 1 1 1 1 1 0 0 0 0 0 0 0 0 0 0 0 0 0 0 0 0 0 0 0 0 0 0 0 0 0 0 0 0 0 0 0
1 1 1 1 1 1 1 1 1 1 1 1 0 0 0 0 0 0 0 0 0 0 0 0 0 0 0 0 0 0 0 0 0 0 0 0 0 0 0 0 0 0 0
1 0 1 1 1 1 1 1 1 1 1 1 1 0 0 0 0 0 0 0 0 0 0 0 0 0 0 0 0 0 0 0 0 0 0 0 0 0 0 0 0 0 0
0 0 0 0 1 1 1 1 1 1 1 1 1 0 0 0 0 0 0 0 0 0 0 0 0 0 0 0 0 0 0 0 0 0 0 0 0 0 0 0 0 0 0
0 0 0 0 0 0 0 0 0 0 0 0 0 0 1 1 0 0 0 0 0 0 0 0 0 0 0 0 0 0 0 0 0 0 0 0 0 0 0 0 0 0 0
0 0 0 0 0 0 0 0 0 0 0 0 0 0 0 0 0 0 0 0 0 0 0 0 0 0 0 0 0 0 0 0 0 0 0 0 0 0 0 0 1 1 0
0 0 0 0 0 0 0 0 0 0 0 0 0 0 0 0 0 0 0 0 0 0 0 0 0 0 0 0 0 0 0 0 0 0 0 0 0 0 0 0 1 1 1
0 0 0 0 0 0 0 0 0 0 0 0 0 0 0 0 0 0 0 0 0 0 0 0 0 0 0 0 0 0 0 0 0 0 0 0 0 0 0 0 0 1 1
0 0 0 0 0 0 0 0 0 0 0 0 0 0 0 0 0 0 0 0 0 0 0 0 0 0 0 0 0 0 0 0 0 0 0 0 0 0 0 0 0 0 0
0 0 0 0 0 0 0 0 0 0 0 0 0 0 0 0 0 0 0 0 0 0 0 0 0 0 0 0 0 0 0 0 0 0 0 0 0 0 0 0 0 0 0
0 0 0 0 0 0 0 0 0 0 0 0 0 0 0 0 0 0 0 0 0 0 0 0 0 0 0 0 0 0 0 0 0 0 0 0 0 0 0 0 0 0 0
0 0 0 0 0 0 0 0 0 0 0 0 0 0 0 0 0 0 0 0 0 0 0 0 0 0 0 0 0 0 0 0 0 0 0 0 0 0 0 0 0 0 0
0 0 0 0 0 0 0 0 0 0 0 0 0 0 0 0 0 0 0 0 0 0 0 0 0 0 0 0 0 0 0 0 0 0 0 0 0 0 0 0 0 0 0
0 0 0 0 0 0 0 0 0 0 0 0 0 0 0 0 0 0 0 0 0 0 0 0 0 0 0 0 0 0 0 0 0 0 0 0 0 0 0 0 0 0 0
0 0 0 0 0 0 0 0 0 0 0 0 0 0 0 0 0 0 0 0 0 0 0 0 0 0 0 0 0 0 0 0 0 0 0 0 0 0 0 0 0 0 0
Wind_Speed
11 14 13 10 10 11 13 15 15 15 15 15 15 15 14 13 12 11 11 10 10 10 10 10 9 9 9 9 10 9 10 10 10 10 10 10 9 9 9 9 8 10 12
14 15 13 10 10 11 13 14 15 15 15 15 15 14 14 13 11 11 10 10 9 9 9 9 9 9 9 9 9 9 9 9 9 9 10 10 9 9 8 5 4 10 11
14 15 14 10 10 11 13 14 14 15 15 15 15 14 13 12 11 10 10 9 9 9 9 9 8 8 8 8 8 8 8 8 8 8 9 9 10 9 7 7 9 11 10
14 14 13 12 10 12 12 13 14 15 15 15 14 14 13 12 11 10 10 9 8 8 8 8 8 8 8 8 7 8 8 8 7 8 7 5 8 10 8 8 9 9 9
13 13 14 13 12 12 12 12 13 14 15 14 14 13 12 11 10 9 9 9 8 8 8 8 8 8 8 7 7 7 7 7 7 9 4 5 6 10 8 8 8 8 8
13 13 15 12 12 12 12 12 13 13 13 13 13 12 11 10 9 9 9 8 8 8 7 8 8 7 7 7 7 7 7 7 10 6 4 4 6 10 8 9 8 8 8
13 13 15 12 12 12 12 12 12 12 12 11 11 10 9 8 8 8 8 8 8 7 7 7 7 7 7 7 7 6 6 6 9 3 4 4 5 10 9 9 9 8 8
12 13 14 12 12 11 11 11 11 10 10 10 9 9 8 7 7 7 7 7 6 6 7 7 6 6 6 6 6 6 7 8 8 4 4 4 7 8 9 9 9 9 9
11 11 12 12 12 12 11 10 11 9 9 8 8 7 7 6 6 6 6 5 5 5 6 6 6 6 6 6 6 6 7 8 9 4 5 3 8 8 9 9 9 9 9
9 9 10 10 10 10 11 10 10 9 8 8 7 7 6 7 7 6 7 6 4 4 5 5 5 6 6 6 6 6 6 8 10 6 4 5 9 9 10 10 10 10 10
8 7 7 7 7 7 8 10 9 9 8 7 7 7 6 6 6 7 4 5 4 4 4 4 5 5 6 8 7 6 8 8 7 5 4 7 8 9 10 10 10 11 11
8 6 5 6 5 5 5 6 5 5 6 4 4 4 4 2 2 2 6 3 3 4 5 5 5 7 10 8 10 10 7 8 6 4 3 8 7 9 10 10 11 12 12
7 5 4 4 4 4 4 3 2 2 3 3 3 2 1 2 2 2 2 4 5 6 6 6 8 6 6 4 4 6 6 6 4 4 3 8 7 9 10 10 12 13 13
6 5 5 4 4 3 3 3 2 2 2 1 2 1 1 1 1 1 1 2 2 2 2 3 3 4 5 5 6 6 6 5 4 3 2 6 6 8 10 11 12 13 13
6 5 5 4 4 3 3 2 2 2 2 2 1 1 1 1 1 1 1 1 2 2 2 3 3 4 5 5 5 6 6 6 6 6 3 6 6 7 9 11 12 12 14
6 5 5 5 5 4 3 2 2 2 2 1 1 2 2 2 1 1 1 1 2 3 3 3 4 4 4 4 5 5 5 6 5 5 6 4 6 6 7 9 10 12 13
6 6 5 5 5 4 3 3 2 2 2 2 2 3 3 2 2 2 2 1 2 2 3 3 3 3 4 4 5 5 5 5 5 5 5 5 4 7 6 7 7 8 11
6 6 5 4 4 4 3 3 2 2 3 2 2 2 3 3 2 2 2 1 2 3 2 2 3 3 3 3 3 4 3 3 5 5 5 5 4 4 5 5 6 7 8
5 5 5 4 4 4 3 3 3 3 3 2 3 3 3 3 3 2 2 2 3 2 3 3 2 3 3 3 4 3 4 4 3 4 4 5 4 4 4 3 5 6 6
6 6 5 5 5 3 2 2 2 3 3 3 3 4 4 3 3 3 1 3 3 2 2 2 3 2 3 3 4 4 4 4 3 3 4 4 3 3 3 3 3 3 3
6 6 6 6 5 3 2 1 2 2 2 3 3 4 4 4 4 3 3 2 3 2 3 3 3 3 3 3 4 4 4 4 3 3 2 2 2 2 2 2 2 2 1
6 6 6 6 5 4 3 2 2 2 2 3 3 3 4 4 4 3 4 3 3 2 2 3 3 3 3 2 4 4 4 4 3 1 1 1 1 1 1 1 2 2 2
6 6 5 6 5 5 3 2 2 2 2 2 3 3 4 4 4 4 4 4 4 3 3 3 4 4 3 3 3 4 4 2 1 1 1 0 1 1 1 1 2 2 2
6 6 6 6 6 5 5 4 4 3 3 3 3 3 4 5 5 5 5 4 4 3 3 3 3 4 4 4 3 3 5 4 3 1 1 1 1 2 2 2 2 2 2
6 6 6 6 6 6 6 5 4 4 4 3 3 4 4 4 5 5 5 5 4 3 4 4 3 4 4 4 4 3 4 4 5 4 3 1 0 1 2 2 2 2 2
6 5 5 6 6 6 6 6 6 5 5 4 4 4 3 3 4 6 5 5 4 4 4 4 4 3 3 4 4 3 3 3 3 3 3 2 1 1 2 2 2 2 2
Wind_Direction
142 134 132 137 133 135 137 138 139 140 141 141 141 140 139 137 134 132 129 125 122 119 117 116 116 118 119 120 121 122 123 122 123 124 123 121 120 120 122 134 157 118 111
138 134 135 136 131 132 134 136 137 138 139 140 140 140 139 138 136 134 132 129 124 122 120 118 118 119 121 122 123 126 129 129 131 133 136 134 130 127 128 126 44 105 124
135 135 142 135 131 130 131 132 134 136 137 138 139 140 140 139 137 135 134 131 128 127 126 125 125 126 126 127 129 133 137 139 141 149 175 159 133 133 130 116 98 116 127
134 140 142 134 132 130 130 131 133 137 138 138 139 141 141 141 140 138 137 134 133 133 132 132 133 133 134 135 137 139 142 145 154 183 199 143 137 134 143 135 130 132 134
134 138 131 139 136 133 133 133 135 137 138 139 141 142 143 142 141 140 140 139 140 141 140 139 140 142 143 145 146 145 148 154 170 220 167 138 127 136 151 148 147 145 144
138 140 133 142 138 137 136 135 135 136 138 139 141 141 142 142 142 143 144 144 145 145 143 144 146 150 153 154 154 156 160 170 206 199 156 169 141 145 163 164 163 158 155
137 135 134 139 138 139 137 134 134 135 137 139 140 139 140 143 145 147 149 150 151 150 149 151 154 157 161 165 169 172 178 199 240 179 178 192 128 143 174 177 174 171 168
133 130 130 137 138 138 137 135 132 133 134 134 136 139 143 146 149 151 153 154 156 156 157 160 162 164 167 173 178 186 196 226 230 210 201 188 121 161 186 185 182 181 178
131 133 140 146 146 143 137 135 135 134 134 132 132 135 141 149 157 159 158 159 162 166 169 171 171 175 179 184 190 197 208 234 257 214 213 188 141 183 198 195 191 191 190
129 132 138 144 148 153 149 140 136 136 135 134 137 143 152 167 174 170 183 161 172 185 190 190 189 191 195 198 202 207 214 228 242 222 218 158 156 194 205 202 200 201 199
125 128 132 134 140 150 145 138 147 145 142 152 154 154 185 197 184 187 153 139 186 203 204 205 206 205 209 200 207 213 224 237 227 233 224 130 170 205 213 208 207 209 209
133 130 123 129 137 139 132 137 151 153 146 172 148 165 203 189 218 225 120 161 197 206 209 207 211 214 227 211 192 205 229 236 249 228 185 142 189 215 220 213 212 216 217
124 113 111 123 134 132 126 131 128 126 134 154 137 171 209 215 209 221 190 182 199 209 219 195 212 226 230 238 238 222 238 248 248 248 170 152 200 221 224 218 216 218 217
104 100 96 106 111 108 110 120 129 123 129 130 131 195 193 225 245 263 271 280 259 250 263 258 258 252 252 244 243 250 241 243 251 260 176 154 205 227 229 222 221 223 219
93 89 85 80 86 93 99 108 110 101 98 104 109 99 334 268 302 327 317 315 296 295 269 265 267 268 265 257 253 250 257 257 258 257 221 168 201 228 231 226 225 227 222
88 82 78 75 75 76 82 80 80 83 81 73 65 54 22 359 358 320 288 301 301 292 298 292 281 273 266 262 263 264 264 264 260 262 266 206 196 219 230 232 233 233 227
91 80 72 72 71 69 69 68 72 76 86 78 73 64 43 17 346 308 307 299 324 304 288 277 278 272 264 263 264 267 263 265 263 257 264 268 237 209 217 232 239 237 231
85 79 67 66 79 76 70 66 66 54 65 65 55 60 52 31 351 312 312 328 329 300 295 288 283 278 275 278 278 277 273 261 263 263 261 258 261 260 216 211 233 239 233
78 76 71 60 65 71 75 80 86 74 59 61 53 42 42 31 357 328 342 355 322 319 312 304 317 296 286 281 274 265 264 261 268 265 266 269 267 265 268 202 219 234 235
80 74 68 66 52 53 79 99 102 89 75 59 52 37 26 20 3 340 358 0 332 334 330 331 316 299 294 288 282 283 271 264 261 265 268 266 273 273 276 275 238 224 220
77 73 65 54 43 36 46 61 76 74 68 63 55 38 27 16 11 356 350 2 340 353 344 331 316 290 282 289 278 270 253 238 235 248 260 278 276 280 294 292 289 289 227
79 72 69 60 50 37 36 45 61 68 75 63 50 46 26 21 11 11 0 347 356 338 352 348 325 308 301 288 291 286 263 224 195 210 220 223 296 303 316 327 327 324 307
84 76 68 61 58 47 38 73 97 110 104 71 50 46 31 25 26 12 4 355 345 337 359 340 319 303 300 289 282 287 287 285 321 160 155 93 23 0 353 351 350 335 330
91 84 73 64 58 53 49 57 67 63 60 46 31 37 31 32 23 12 5 3 350 350 347 333 339 311 299 295 285 269 279 296 283 259 179 106 57 22 8 358 357 0 354
97 85 72 66 59 54 52 58 60 60 61 59 49 48 27 37 27 16 7 360 354 352 352 340 335 327 313 303 297 291 281 268 258 261 258 222 98 31 32 18 7 8 5
103 92 83 76 67 60 59 61 59 59 56 53 41 35 29 37 29 23 12 4 355 355 352 345 337 342 333 318 304 294 284 280 274 266 262 256 259 4 24 23 12 15 18